DECAYED
Showing default

MEZNSAT, 46489 (Decayed)

Orbit data source: Space-Track

MEZNSAT, 46489 was an Emirian payload satellite in LEO that was launched on Mon, 28 Sep 2020 UTC via a SOYUZ-2-1B launch vehicle from the Plesetsk Missile And Space Complex (PKMTR). Payload-class satellites include a variety of spacecraft equipped with specific instruments for various scientific and technological missions. These include communications satellites like Starlink; space stations such as the ISS; scientific satellites like the Hubble; Earth observation satellites from companies like Planet Labs, Umbra, and HawkEye 360; GPS; miniature CubeSats for education and research; and military/defense satellites.

Not visible in the next 10 days
Identifier
46489, 2020-068D
Orbit
Decayed
Country
Flag of AEAE / UAE
Related business
Manufacturer
MASDAR/AURAK
Mission
Decayed Amateur Earth Obs Sci
Bus & Motor
CUBESAT 3U, Unknown motor
Mass
5 kg wet, 5 kg dry
Launch date (UTC)
2020-09-28 (5 years ago)
Launch vehicle
SOYUZ-2-1B
Launch site
Plesetsk Missile And Space Complex (PKMTR)
Object type
Payload
Rocket body
Debris
Shape & HBR
Box, Unknown HBR
Radar Cross Section
0.035 m², Small (<0.1 m²)

Expand to show TLE details & history
Last TLE update: 6 months ago

TLE from 6 months ago
0 MEZNSAT
1 46489U 20068D   25122.19000044  .13801218  28762-5  41319-3 0  9992
2 46489  97.7956 120.2839 0010301 238.1381 121.8917 16.44344453254134
Epoch: 2025-05-02T04:33Z
TLE epoch observation values (Epoch: 2025-05-02T04:33:36.038Z)
Latitude
-0.00005°
Longitude
-168.46643°
Altitude
161.077 km
Speed
7.807 km/s
True Right ascension
08h 01m 08s
True Declination
0° 00' 00"
Sunlit
Object was in daylight at epoch
Visualization orbit readout
Latitude
Unknown
Longitude
Unknown
Altitude
Unknown
Speed
Unknown
Apparent Right ascension
Unknown
Apparent Declination
Unknown
Sunlit
N/A
Visualization observer readout
Local Sidereal Time
10:38:23
Azimuth
Unknown
Elevation
Unknown
Doppler factor
Unknown
Orbital elements
Apogee altitude
157.817 km
Perigee altitude
144.366 km
Semi-major axis
6,529.228 km
Eccentricity
0.00103
Inclination
97.7956°
RAAN
120.2839°
Arg. of periapsis
238.1381°
True anomaly
121.99185°
Mean anomaly
121.8917°
Eccentric anomaly
121.94178°
Mean motion
4.11387 °/min
Orbital period
87.51 mins
BSTAR
0.00041319
Loading maneuver chart data...
Computing Atmospheric mass density...
Loading historical data...
Loading historical data...
Loading historical data...
Loading historical data...
Loading historical data...
Loading historical data...
Loading historical data...

Documentation

Showing up to 5 results
|